TimePDT,TemperatureF,Dew PointF,Humidity,Sea Level PressureIn,VisibilityMPH,Wind Direction,Wind SpeedMPH,Gust SpeedMPH,PrecipitationIn,Events,Conditions,WindDirDegrees,DateUTC
12:53 AM,66.9,55.0,66,29.81,10.0,SSW,3.5,-,N/A,,Overcast,210,2013-06-03 07:53:00
1:53 AM,66.0,55.0,68,29.80,10.0,Calm,Calm,-,N/A,,Overcast,0,2013-06-03 08:53:00
2:53 AM,66.0,55.0,68,29.80,10.0,Calm,Calm,-,N/A,,Overcast,0,2013-06-03 09:53:00
3:53 AM,66.0,55.9,70,29.80,10.0,South,4.6,-,N/A,,Overcast,190,2013-06-03 10:53:00
4:53 AM,66.0,55.9,70,29.81,10.0,SSE,3.5,-,N/A,,Overcast,160,2013-06-03 11:53:00
5:53 AM,66.9,55.9,68,29.82,10.0,Calm,Calm,-,N/A,,Overcast,0,2013-06-03 12:53:00
6:53 AM,66.9,55.0,66,29.83,10.0,SE,3.5,-,N/A,,Overcast,130,2013-06-03 13:53:00
7:53 AM,68.0,55.9,65,29.86,10.0,SE,4.6,-,N/A,,Overcast,140,2013-06-03 14:53:00
8:53 AM,68.0,55.0,63,29.87,10.0,ESE,4.6,-,N/A,,Overcast,120,2013-06-03 15:53:00
9:53 AM,70.0,55.0,59,29.87,10.0,Variable,4.6,-,N/A,,Overcast,0,2013-06-03 16:53:00
10:46 AM,71.6,55.4,57,29.88,10.0,Calm,Calm,-,N/A,,Overcast,0,2013-06-03 17:46:00
10:53 AM,73.0,55.0,53,29.88,10.0,NE,3.5,-,N/A,,Overcast,50,2013-06-03 17:53:00
11:53 AM,75.9,55.9,50,29.87,10.0,Variable,6.9,-,N/A,,Scattered Clouds,0,2013-06-03 18:53:00
12:53 PM,77.0,57.0,50,29.86,10.0,SW,8.1,16.1,N/A,,Scattered Clouds,230,2013-06-03 19:53:00
1:53 PM,75.9,57.0,52,29.85,10.0,SSW,9.2,-,N/A,,Clear,210,2013-06-03 20:53:00
2:53 PM,75.9,57.0,52,29.84,10.0,Variable,5.8,-,N/A,,Clear,0,2013-06-03 21:53:00
3:53 PM,75.0,57.0,53,29.83,10.0,SSW,8.1,-,N/A,,Clear,210,2013-06-03 22:53:00
4:53 PM,73.9,57.0,55,29.83,10.0,SSW,9.2,-,N/A,,Clear,200,2013-06-03 23:53:00
5:53 PM,72.0,55.9,57,29.83,10.0,SW,6.9,-,N/A,,Clear,220,2013-06-04 00:53:00
6:53 PM,71.1,55.9,59,29.84,10.0,SW,6.9,-,N/A,,Partly Cloudy,220,2013-06-04 01:53:00
7:42 PM,69.8,55.4,60,29.85,10.0,South,6.9,-,N/A,,Overcast,190,2013-06-04 02:42:00
7:53 PM,69.1,55.9,63,29.85,10.0,SSW,5.8,-,N/A,,Overcast,210,2013-06-04 02:53:00
8:53 PM,68.0,55.9,65,29.86,10.0,South,4.6,-,N/A,,Overcast,180,2013-06-04 03:53:00
9:53 PM,68.0,55.9,65,29.87,10.0,South,4.6,-,N/A,,Overcast,190,2013-06-04 04:53:00
10:53 PM,68.0,55.9,65,29.88,10.0,South,4.6,-,N/A,,Overcast,180,2013-06-04 05:53:00
11:53 PM,66.9,55.0,66,29.89,10.0,South,6.9,-,N/A,,Overcast,190,2013-06-04 06:53:00